| time (UTC) | temp F | wind direction | speed MPH | gust MPH | rain 1hr in | rain 24hr in | rain mn in | humidity % | barometer mb |
| 20260504185100 | 74 | 82 | 2.0 | 10.0 | 0.02 | 0.58 | 0.48 | 88 | 1015.4 |
| 20260504184559 | 74 | 128 | 4.0 | 10.0 | 0.02 | 0.58 | 0.48 | 88 | 1015.4 |
| 20260504184102 | 74 | 88 | 5.0 | 10.0 | 0.02 | 0.58 | 0.48 | 88 | 1015.5 |
| 20260504183600 | 74 | 53 | 5.0 | 9.0 | 0.02 | 0.58 | 0.48 | 87 | 1015.5 |
| 20260504183058 | 75 | 117 | 4.0 | 12.0 | 0.02 | 0.58 | 0.48 | 88 | 1015.6 |
| 20260504182601 | 74 | 83 | 6.0 | 12.0 | 0.02 | 0.58 | 0.48 | 87 | 1015.8 |
| 20260504182059 | 74 | 39 | 4.0 | 10.0 | 0.05 | 0.58 | 0.48 | 87 | 1015.8 |
| 20260504181600 | 74 | 120 | 4.0 | 10.0 | 0.07 | 0.58 | 0.48 | 87 | 1015.9 |
| 20260504181059 | 74 | 57 | 4.0 | 11.0 | 0.07 | 0.58 | 0.48 | 87 | 1016.0 |
| 20260504180600 | 74 | 130 | 4.0 | 11.0 | 0.06 | 0.57 | 0.47 | 87 | 1016.0 |
| 20260504180155 | 74 | 107 | 3.0 | 14.0 | 0.06 | 0.57 | 0.47 | 87 | 1016.0 |
| 20260504175559 | 74 | 90 | 2.0 | 14.0 | 0.06 | 0.57 | 0.47 | 87 | 1016.2 |
| 20260504175101 | 74 | 121 | 3.0 | 7.0 | 0.05 | 0.56 | 0.46 | 87 | 1016.1 |
| 20260504174557 | 74 | 22 | 3.0 | 7.0 | 0.05 | 0.56 | 0.46 | 87 | 1016.2 |
| 20260504174100 | 74 | 101 | 1.0 | 13.0 | 0.06 | 0.56 | 0.46 | 87 | 1016.2 |
| 20260504173559 | 73 | 51 | 3.0 | 14.0 | 0.06 | 0.56 | 0.46 | 87 | 1016.1 |
| 20260504173125 | 73 | 55 | 5.0 | 14.0 | 0.07 | 0.56 | 0.46 | 86 | 1016.1 |
| 20260504172556 | 74 | 63 | 3.0 | 13.0 | 0.07 | 0.56 | 0.46 | 86 | 1016.1 |
| 20260504172059 | 74 | 44 | 6.0 | 11.0 | 0.04 | 0.52 | 0.43 | 86 | 1016.2 |
| 20260504171557 | 75 | 43 | 2.0 | 7.0 | 0.03 | 0.51 | 0.41 | 87 | 1016.1 |
| 20260504171100 | 75 | 90 | 2.0 | 7.0 | 0.05 | 0.51 | 0.41 | 87 | 1015.9 |
| 20260504170559 | 75 | 114 | 3.0 | 7.0 | 0.07 | 0.51 | 0.41 | 87 | 1016.0 |
| 20260504151058 | 75 | 49 | 1.0 | 9.0 | 0.27 | 0.39 | 0.29 | 85 | 1016.3 |
| 20260504150600 | 75 | 81 | 2.0 | 9.0 | 0.25 | 0.37 | 0.27 | 84 | 1016.3 |
| 20260504141058 | 77 | 36 | 2.0 | 6.0 | 0.00 | 0.12 | 0.02 | 81 | 1015.9 |
| 20260504140557 | 76 | 37 | 1.0 | 8.0 | 0.00 | 0.12 | 0.02 | 82 | 1015.8 |
| 20260504140119 | 76 | 17 | 1.0 | 8.0 | 0.00 | 0.12 | 0.02 | 83 | 1015.9 |
| 20260504130557 | 74 | 333 | 2.0 | 8.0 | 0.00 | 0.14 | 0.02 | 89 | 1015.4 |
| 20260504120113 | 73 | 0 | 0.0 | 0.0 | 0.00 | 0.27 | 0.02 | 90 | 1014.6 |
| 20260504110601 | 72 | 0 | 0.0 | 0.0 | 0.00 | 0.75 | 0.02 | 90 | 1014.3 |
| 20260504100559 | 73 | 0 | 0.0 | 2.0 | 0.00 | 0.80 | 0.02 | 89 | 1014.3 |
| 20260504081558 | 74 | 0 | 0.0 | 0.0 | 0.02 | 0.80 | 0.02 | 88 | 1013.3 |
| 20260504081057 | 74 | 0 | 0.0 | 0.0 | 0.02 | 0.80 | 0.02 | 88 | 1013.3 |
| 20260504080557 | 74 | 0 | 0.0 | 1.0 | 0.02 | 0.80 | 0.02 | 88 | 1013.0 |
| 20260504050558 | 75 | 0 | 0.0 | 0.0 | 0.00 | 0.78 | 0.00 | 86 | 1015.6 |
| 20260504050141 | 75 | 0 | 0.0 | 0.0 | 0.00 | 0.78 | 0.00 | 86 | 1015.6 |
| 20260504045557 | 75 | 0 | 0.0 | 0.0 | 0.00 | 0.78 | 0.00 | 86 | 1015.7 |
| 20260504045058 | 75 | 0 | 0.0 | 0.0 | 0.00 | 0.78 | 0.00 | 86 | 1015.7 |
| 20260504044607 | 75 | 0 | 0.0 | 0.0 | 0.00 | 0.78 | 0.00 | 86 | 1015.7 |
| 20260504044059 | 75 | 0 | 0.0 | 0.0 | 0.00 | 0.78 | 0.00 | 86 | 1015.4 |
| 20260504043600 | 75 | 0 | 0.0 | 0.0 | 0.00 | 0.78 | 0.00 | 86 | 1015.4 |
| 20260504043102 | 75 | 0 | 0.0 | 0.0 | 0.00 | 0.78 | 0.00 | 86 | 1015.3 |
| 20260504042558 | 75 | 0 | 0.0 | 3.0 | 0.00 | 0.78 | 0.00 | 86 | 1015.3 |
| 20260504042057 | 75 | 0 | 0.0 | 4.0 | 0.00 | 0.78 | 0.00 | 86 | 1015.3 |
| 20260504041557 | 75 | 0 | 1.0 | 4.0 | 0.00 | 0.78 | 0.00 | 86 | 1015.2 |
| 20260504041058 | 75 | 74 | 0.0 | 3.0 | 0.00 | 0.78 | 0.00 | 87 | 1015.4 |
| 20260504040558 | 75 | 0 | 0.0 | 3.0 | 0.00 | 0.78 | 0.00 | 87 | 1015.5 |
| 20260504040108 | 75 | 0 | 0.0 | 3.0 | 0.00 | 0.78 | 0.00 | 87 | 1015.6 |
| 20260504035558 | 74 | 0 | 0.0 | 5.0 | 0.00 | 0.78 | 0.78 | 87 | 1015.6 |
| 20260504035101 | 75 | 22 | 1.0 | 6.0 | 0.00 | 0.78 | 0.78 | 87 | 1015.6 |
| 20260504034600 | 74 | 0 | 0.0 | 6.0 | 0.00 | 0.78 | 0.78 | 87 | 1015.6 |
| 20260504034059 | 74 | 0 | 1.0 | 5.0 | 0.00 | 0.78 | 0.78 | 87 | 1015.7 |
| 20260504033556 | 74 | 80 | 1.0 | 6.0 | 0.00 | 0.78 | 0.78 | 87 | 1015.7 |
| 20260504033058 | 74 | 0 | 2.0 | 6.0 | 0.00 | 0.78 | 0.78 | 87 | 1015.7 |
| 20260504032559 | 74 | 60 | 0.0 | 4.0 | 0.00 | 0.78 | 0.78 | 87 | 1015.9 |
| 20260504032103 | 74 | 0 | 0.0 | 4.0 | 0.00 | 0.78 | 0.78 | 87 | 1015.9 |
| 20260504031623 | 74 | 0 | 0.0 | 4.0 | 0.00 | 0.78 | 0.78 | 88 | 1015.7 |
| 20260504031100 | 74 | 0 | 0.0 | 3.0 | 0.00 | 0.78 | 0.78 | 88 | 1015.8 |
| 20260504030559 | 74 | 0 | 0.0 | 4.0 | 0.00 | 0.78 | 0.78 | 88 | 1015.8 |
| 20260504030100 | 74 | 0 | 0.0 | 4.0 | 0.00 | 0.78 | 0.78 | 87 | 1015.9 |
| 20260504025559 | 74 | 352 | 1.0 | 4.0 | 0.00 | 0.78 | 0.78 | 88 | 1015.9 |
| 20260504025057 | 74 | 59 | 0.0 | 0.0 | 0.00 | 0.78 | 0.78 | 88 | 1015.8 |
| 20260504024601 | 74 | 0 | 0.0 | 4.0 | 0.00 | 0.78 | 0.78 | 88 | 1015.8 |
| 20260504024059 | 74 | 0 | 0.0 | 5.0 | 0.00 | 0.78 | 0.78 | 88 | 1015.8 |
| 20260504023558 | 74 | 0 | 0.0 | 5.0 | 0.00 | 0.78 | 0.78 | 88 | 1015.7 |
| 20260504023059 | 74 | 34 | 1.0 | 5.0 | 0.00 | 0.78 | 0.78 | 88 | 1015.7 |
| 20260504022559 | 74 | 9 | 1.0 | 6.0 | 0.00 | 0.78 | 0.78 | 88 | 1015.7 |
| 20260504022101 | 74 | 11 | 2.0 | 7.0 | 0.00 | 0.78 | 0.78 | 88 | 1015.7 |
| 20260504021609 | 74 | 360 | 1.0 | 7.0 | 0.00 | 0.78 | 0.78 | 88 | 1015.6 |
| 20260504021101 | 74 | 0 | 0.0 | 4.0 | 0.00 | 0.78 | 0.78 | 88 | 1015.7 |
| 20260504020601 | 74 | 0 | 0.0 | 4.0 | 0.00 | 0.78 | 0.78 | 88 | 1015.7 |
| 20260504020107 | 74 | 0 | 1.0 | 4.0 | 0.00 | 0.78 | 0.78 | 88 | 1015.7 |
| 20260504015600 | 74 | 0 | 0.0 | 4.0 | 0.00 | 0.78 | 0.78 | 88 | 1015.7 |
| 20260504015059 | 74 | 0 | 1.0 | 4.0 | 0.00 | 0.78 | 0.78 | 88 | 1015.6 |
| 20260504014601 | 74 | 350 | 0.0 | 2.0 | 0.00 | 0.78 | 0.78 | 88 | 1015.6 |
| 20260504014059 | 74 | 0 | 0.0 | 3.0 | 0.00 | 0.78 | 0.78 | 88 | 1015.5 |
| 20260504013557 | 74 | 0 | 0.0 | 4.0 | 0.00 | 0.78 | 0.78 | 87 | 1015.6 |
| 20260504013105 | 74 | 9 | 1.0 | 4.0 | 0.00 | 0.78 | 0.78 | 87 | 1015.6 |
| 20260504012559 | 74 | 352 | 1.0 | 4.0 | 0.00 | 0.78 | 0.78 | 87 | 1015.6 |
| 20260504012059 | 74 | 0 | 0.0 | 0.0 | 0.00 | 0.78 | 0.78 | 87 | 1015.5 |
| 20260504011600 | 74 | 0 | 0.0 | 0.0 | 0.00 | 0.78 | 0.78 | 87 | 1015.4 |
| 20260504011100 | 74 | 0 | 0.0 | 3.0 | 0.00 | 0.78 | 0.78 | 87 | 1015.6 |
| 20260504010556 | 74 | 0 | 0.0 | 3.0 | 0.00 | 0.78 | 0.78 | 87 | 1015.6 |
| 20260504010120 | 74 | 28 | 0.0 | 3.0 | 0.01 | 0.78 | 0.78 | 87 | 1015.6 |
| 20260504005559 | 74 | 0 | 0.0 | 3.0 | 0.05 | 0.78 | 0.78 | 87 | 1015.6 |
| 20260504005057 | 74 | 0 | 1.0 | 4.0 | 0.08 | 0.78 | 0.78 | 87 | 1015.6 |
| 20260504004558 | 74 | 352 | 1.0 | 4.0 | 0.08 | 0.78 | 0.78 | 87 | 1015.4 |
| 20260504004056 | 75 | 5 | 1.0 | 4.0 | 0.08 | 0.78 | 0.78 | 86 | 1015.3 |
| 20260504003558 | 75 | 0 | 0.0 | 0.0 | 0.08 | 0.78 | 0.78 | 86 | 1015.2 |
| 20260504003058 | 75 | 0 | 0.0 | 0.0 | 0.08 | 0.78 | 0.78 | 86 | 1015.3 |
| 20260504002557 | 75 | 0 | 0.0 | 1.0 | 0.08 | 0.78 | 0.78 | 86 | 1015.3 |
| 20260504002101 | 75 | 0 | 0.0 | 3.0 | 0.08 | 0.78 | 0.78 | 85 | 1015.3 |
| 20260504001611 | 75 | 0 | 0.0 | 3.0 | 0.08 | 0.78 | 0.78 | 85 | 1015.4 |
| 20260504001100 | 75 | 0 | 0.0 | 5.0 | 0.08 | 0.78 | 0.78 | 85 | 1015.4 |
| 20260504000557 | 75 | 5 | 1.0 | 8.0 | 0.08 | 0.78 | 0.78 | 85 | 1015.3 |
| 20260504000106 | 75 | 0 | 1.0 | 10.0 | 0.07 | 0.77 | 0.77 | 85 | 1015.3 |
| 20260503235557 | 76 | 319 | 2.0 | 10.0 | 0.03 | 0.73 | 0.73 | 85 | 1015.2 |
| 20260503235056 | 75 | 25 | 3.0 | 10.0 | 0.00 | 0.70 | 0.70 | 85 | 1014.9 |
| 20260503234557 | 75 | 70 | 3.0 | 9.0 | 0.00 | 0.70 | 0.70 | 84 | 1014.7 |
| 20260503234057 | 75 | 21 | 3.0 | 11.0 | 0.00 | 0.70 | 0.70 | 84 | 1014.6 |
| 20260503233558 | 76 | 53 | 4.0 | 11.0 | 0.00 | 0.70 | 0.70 | 85 | 1014.6 |
| 20260503233059 | 76 | 76 | 2.0 | 7.0 | 0.00 | 0.70 | 0.70 | 85 | 1014.6 |
| 20260503232557 | 76 | 80 | 3.0 | 11.0 | 0.00 | 0.70 | 0.70 | 85 | 1014.8 |
| 20260503232101 | 76 | 0 | 2.0 | 11.0 | 0.00 | 0.70 | 0.70 | 84 | 1014.9 |
| 20260503231557 | 76 | 56 | 4.0 | 9.0 | 0.00 | 0.70 | 0.70 | 85 | 1014.6 |
| 20260503231059 | 76 | 88 | 1.0 | 7.0 | 0.02 | 0.70 | 0.70 | 85 | 1014.5 |
| 20260503230559 | 76 | 53 | 3.0 | 8.0 | 0.02 | 0.70 | 0.70 | 85 | 1014.5 |
| 20260503230059 | 76 | 77 | 2.0 | 9.0 | 0.02 | 0.70 | 0.70 | 84 | 1014.3 |
| 20260503225559 | 76 | 26 | 3.0 | 9.0 | 0.02 | 0.70 | 0.70 | 84 | 1014.2 |
| 20260503225102 | 77 | 23 | 3.0 | 9.0 | 0.02 | 0.70 | 0.70 | 84 | 1014.2 |
| 20260503224559 | 77 | 0 | 2.0 | 7.0 | 0.02 | 0.70 | 0.70 | 84 | 1014.3 |
| 20260503224057 | 77 | 60 | 2.0 | 7.0 | 0.02 | 0.70 | 0.70 | 84 | 1014.3 |
| 20260503223558 | 77 | 65 | 1.0 | 5.0 | 0.02 | 0.70 | 0.70 | 83 | 1014.4 |
| 20260503223059 | 77 | 17 | 1.0 | 5.0 | 0.02 | 0.70 | 0.70 | 83 | 1014.3 |
| 20260503222556 | 77 | 71 | 0.0 | 6.0 | 0.02 | 0.70 | 0.70 | 82 | 1014.1 |
| 20260503222057 | 77 | 32 | 2.0 | 9.0 | 0.02 | 0.70 | 0.70 | 82 | 1014.3 |
| 20260503221557 | 77 | 323 | 4.0 | 9.0 | 0.02 | 0.70 | 0.70 | 81 | 1014.3 |
| 20260503221059 | 78 | 33 | 4.0 | 10.0 | 0.00 | 0.68 | 0.68 | 81 | 1014.4 |
| 20260503220559 | 78 | 5 | 3.0 | 10.0 | 0.00 | 0.68 | 0.68 | 81 | 1014.3 |
| 20260503220104 | 78 | 53 | 4.0 | 9.0 | 0.00 | 0.68 | 0.68 | 81 | 1014.4 |
| 20260503215559 | 78 | 67 | 2.0 | 9.0 | 0.00 | 0.68 | 0.68 | 81 | 1014.4 |
| 20260503215056 | 78 | 51 | 3.0 | 8.0 | 0.00 | 0.68 | 0.68 | 81 | 1014.4 |
| 20260503214559 | 78 | 68 | 3.0 | 8.0 | 0.00 | 0.68 | 0.68 | 80 | 1014.4 |
| 20260503214059 | 78 | 352 | 3.0 | 8.0 | 0.00 | 0.68 | 0.68 | 80 | 1014.4 |
| 20260503213600 | 78 | 58 | 3.0 | 8.0 | 0.00 | 0.68 | 0.68 | 80 | 1014.4 |
| 20260503213133 | 78 | 76 | 3.0 | 8.0 | 0.00 | 0.68 | 0.68 | 80 | 1014.4 |
| 20260503212601 | 78 | 53 | 2.0 | 9.0 | 0.00 | 0.68 | 0.68 | 80 | 1014.5 |
| 20260503212101 | 78 | 60 | 3.0 | 9.0 | 0.00 | 0.68 | 0.68 | 80 | 1014.5 |
| 20260503211621 | 78 | 351 | 4.0 | 9.0 | 0.00 | 0.68 | 0.68 | 80 | 1014.5 |
| 20260503211057 | 78 | 62 | 2.0 | 6.0 | 0.00 | 0.68 | 0.68 | 80 | 1014.6 |
| 20260503210559 | 78 | 122 | 2.0 | 6.0 | 0.00 | 0.68 | 0.68 | 80 | 1014.7 |
| 20260503210100 | 78 | 107 | 2.0 | 7.0 | 0.00 | 0.68 | 0.68 | 79 | 1014.9 |
| 20260503205557 | 78 | 38 | 1.0 | 7.0 | 0.00 | 0.68 | 0.68 | 79 | 1014.8 |
| 20260503205102 | 78 | 82 | 1.0 | 6.0 | 0.00 | 0.68 | 0.68 | 79 | 1014.7 |
| 20260503204621 | 78 | 20 | 1.0 | 10.0 | 0.00 | 0.68 | 0.68 | 78 | 1014.8 |
| 20260503204057 | 78 | 0 | 3.0 | 10.0 | 0.00 | 0.68 | 0.68 | 78 | 1014.8 |
| 20260503203602 | 78 | 52 | 4.0 | 10.0 | 0.00 | 0.68 | 0.68 | 77 | 1014.8 |
| 20260503203115 | 78 | 88 | 3.0 | 10.0 | 0.00 | 0.68 | 0.68 | 77 | 1014.6 |
| 20260503202558 | 79 | 22 | 2.0 | 9.0 | 0.00 | 0.68 | 0.68 | 77 | 1014.7 |
| 20260503202100 | 79 | 78 | 3.0 | 9.0 | 0.00 | 0.68 | 0.68 | 77 | 1014.8 |
| 20260503201559 | 79 | 5 | 3.0 | 9.0 | 0.00 | 0.68 | 0.68 | 76 | 1014.8 |
| 20260503201102 | 79 | 132 | 3.0 | 9.0 | 0.00 | 0.68 | 0.68 | 77 | 1014.7 |
| 20260503200601 | 79 | 352 | 2.0 | 9.0 | 0.00 | 0.68 | 0.68 | 77 | 1014.7 |
| 20260503200057 | 79 | 88 | 3.0 | 8.0 | 0.00 | 0.68 | 0.68 | 77 | 1014.8 |
| 20260503195600 | 79 | 63 | 3.0 | 7.0 | 0.00 | 0.68 | 0.68 | 77 | 1014.7 |
| 20260503195059 | 79 | 117 | 3.0 | 9.0 | 0.00 | 0.68 | 0.68 | 77 | 1014.9 |
| 20260503194558 | 79 | 47 | 2.0 | 9.0 | 0.00 | 0.68 | 0.68 | 77 | 1015.0 |
| 20260503194100 | 79 | 82 | 3.0 | 9.0 | 0.00 | 0.68 | 0.68 | 76 | 1015.2 |
| 20260503193602 | 79 | 5 | 3.0 | 11.0 | 0.00 | 0.68 | 0.68 | 76 | 1015.1 |
| 20260503193059 | 80 | 94 | 3.0 | 11.0 | 0.00 | 0.68 | 0.68 | 76 | 1015.2 |
| 20260503192557 | 80 | 15 | 4.0 | 11.0 | 0.00 | 0.68 | 0.68 | 76 | 1015.2 |
| 20260503192059 | 80 | 65 | 3.0 | 9.0 | 0.00 | 0.68 | 0.68 | 77 | 1015.2 |
| 20260503191605 | 79 | 281 | 5.0 | 11.0 | 0.00 | 0.68 | 0.68 | 76 | 1015.3 |
| 20260503191100 | 80 | 46 | 3.0 | 11.0 | 0.00 | 0.68 | 0.68 | 77 | 1015.3 |
| 20260503190601 | 79 | 5 | 3.0 | 9.0 | 0.00 | 0.68 | 0.68 | 78 | 1015.5 |
| 20260503190101 | 79 | 94 | 1.0 | 9.0 | 0.00 | 0.68 | 0.68 | 79 | 1015.5 |
| 20260503185601 | 79 | 63 | 2.0 | 9.0 | 0.00 | 0.68 | 0.68 | 78 | 1015.6 |